Powrót do katalogu

OPS 4682 DEB

AktywnyPO
NORAD 38421·DEBRIS·🇺🇸 United States

Wystrzelony Apr 3, 1965 z Vandenberg Space Force Base

Loading…

Następne Przeloty (najbliższe 24 godziny)

TLE

ŚwieżeSource: Space-Track

Epoka: Sep 13, 2026, 00:45 UTC

1 38421U 65027EA  26256.03182306 -.00000175  00000-0 -52567-3 0  9995
2 38421  90.2677  11.1816 0034832  60.8802 299.5805 13.10007218680121

Śledź OPS 4682 DEB w czasie rzeczywistym z AllMySat

Download on the App Store